Muskegon, MI

7:54 PM EST on December 07, 2016 (GMT -0500)
Muskegon County

Weather History for KMKG - May, 2013

Change the Weather History Date:

Friday, May 10, 2013

  Actual Average Record
Temperature  
Mean Temperature 52 °F 55 °F  
Max Temperature 57 °F 65 °F 90 °F (1930)
Min Temperature 47 °F 45 °F 22 °F (1947)
Degree Days  
Heating Degree Days 13 10  
Month to date heating degree days 21 117  
Since 1 July heating degree days 6111 6335  
Cooling Degree Days 0 1  
Month to date cooling degree days 10 2  
Year to date cooling degree days 14 6  
Moisture  
Dew Point 46 °F    
Average Humidity 80    
Maximum Humidity 86    
Minimum Humidity 74    
Precipitation  
Precipitation 0.75 in 0.10 in 1.50 in (1905)
Month to date precipitation 1.03 1.02  
Year to date precipitation 19.15 10.04  
Snow  
Snow 0.00 in 0.00 in 4.00 in (1902)
Month to date snowfall 0.0 0.0  
Since 1 July snowfall 98.6 93.7  
Snow Depth 0.00 in    
Sea Level Pressure  
Sea Level Pressure 29.86 in    
Wind  
Wind Speed 9 mph (NE)    
Max Wind Speed 18 mph    
Max Gust Speed 25 mph    
Visibility 8 miles    
Events Rain    
T = Trace of Precipitation, MM = Missing Value Source: NWS Daily Summary

Daily Weather History Graph

Daily Weather History Graph

Search for Another Location

Airport or City:

Trip Planner

Search our weather history database for the weather conditions in past years. The results will help you decide how hot, cold, wet, or windy it might be!

Date:

Astronomy

May. 10, 2013 Rise Set
Actual Time 6:26 AM EDT 8:56 PM EDT
Civil Twilight 5:54 AM EDT 9:29 PM EDT
Nautical Twilight 5:14 AM EDT 10:09 PM EDT
Astronomical Twilight 4:29 AM EDT 10:55 PM EDT
Moon 6:50 AM EDT (5/10) 9:46 PM EDT (5/10)
Length of Visible Light 15h 34m
Length of Day
14h 30m
New Moon, 0% of the Moon is Illuminated
May 10
New Moon
May 18
First Quarter
May 25
Full
May 31
Last Quarter
Jun 8
New

Hourly Weather History & Observations

Time (EDT) Temp. Windchill Dew Point Humidity Pressure Visibility Wind Dir Wind Speed Gust Speed Precip Events Conditions
12:55 AM 55.9 °F - 52.0 °F 87% 29.89 in 8.0 mi North 5.8 mph - 0.02 in Rain Light Rain
1:55 AM 55.9 °F - 52.0 °F 87% 29.87 in 9.0 mi NNE 6.9 mph - 0.06 in Rain Light Rain
2:55 AM 55.9 °F - 52.0 °F 87% 29.84 in 10.0 mi NE 4.6 mph - 0.01 in Rain Light Rain
3:41 AM 55.4 °F - 51.8 °F 88% 29.83 in 10.0 mi NE 6.9 mph - 0.02 in Rain Light Rain
3:55 AM 55.9 °F - 52.0 °F 87% 29.82 in 9.0 mi NE 9.2 mph - 0.03 in Rain Light Rain
4:24 AM 55.4 °F - 51.8 °F 88% 29.81 in 10.0 mi ENE 8.1 mph - 0.01 in Rain Light Rain
4:55 AM 55.0 °F - 51.1 °F 86% 29.80 in 9.0 mi ENE 8.1 mph - 0.02 in Rain Light Rain
5:46 AM 53.6 °F - 51.8 °F 94% 29.79 in 10.0 mi ENE 10.4 mph - 0.00 in   Overcast
5:55 AM 54.0 °F - 51.1 °F 90% 29.80 in 10.0 mi ENE 10.4 mph - 0.00 in   Overcast
6:15 AM 53.6 °F - 51.8 °F 94% 29.80 in 9.0 mi ENE 11.5 mph - 0.00 in Rain Light Rain
6:28 AM 53.6 °F - 51.8 °F 94% 29.80 in 7.0 mi ENE 11.5 mph - 0.01 in Rain Light Rain
6:40 AM 53.6 °F - 51.8 °F 94% 29.80 in 7.0 mi ENE 8.1 mph 18.4 mph 0.02 in Rain Light Rain
6:55 AM 54.0 °F - 50.0 °F 86% 29.80 in 9.0 mi ENE 16.1 mph - 0.03 in Rain Light Rain
7:06 AM 53.6 °F - 50.0 °F 88% 29.79 in 9.0 mi ENE 11.5 mph - 0.00 in   Overcast
7:18 AM 53.6 °F - 51.8 °F 94% 29.79 in 8.0 mi ENE 9.2 mph - 0.00 in   Overcast
7:55 AM 53.6 °F - 48.2 °F 82% 29.80 in 10.0 mi ENE 16.1 mph 21.9 mph N/A   Overcast
8:04 AM 53.6 °F - 48.2 °F 82% 29.80 in 10.0 mi ENE 15.0 mph 23.0 mph N/A   Overcast
8:14 AM 51.8 °F - 48.2 °F 88% 29.80 in 10.0 mi ENE 10.4 mph - N/A   Overcast
8:55 AM 51.8 °F - 46.4 °F 82% 29.81 in 5.0 mi ENE 13.8 mph 23.0 mph N/A Rain Light Rain
9:48 AM 48.2 °F - 44.6 °F 87% 29.84 in 1.8 mi NE 9.2 mph - 0.03 in Rain Rain
9:55 AM 48.0 °F - 45.0 °F 89% 29.84 in 1.8 mi NE 10.4 mph - 0.06 in Rain Rain
10:00 AM 48.2 °F - 44.6 °F 87% 29.83 in 2.0 mi NNE 18.4 mph 25.3 mph 0.01 in Rain Rain
10:20 AM 48.2 °F - 44.6 °F 87% 29.84 in 2.5 mi NE 12.7 mph 18.4 mph 0.04 in Rain Light Rain
10:27 AM 48.2 °F - 44.6 °F 87% 29.84 in 2.5 mi NE 11.5 mph - 0.06 in Rain Rain
10:38 AM 48.2 °F - 44.6 °F 87% 29.84 in 1.8 mi NE 11.5 mph - 0.12 in Rain Heavy Rain
10:47 AM 48.2 °F - 44.6 °F 87% 29.85 in 2.5 mi ENE 8.1 mph - 0.16 in Rain Rain
10:55 AM 48.0 °F - 44.1 °F 86% 29.86 in 2.5 mi NE 13.8 mph 24.2 mph 0.19 in Rain Heavy Rain
11:13 AM 46.4 °F 40.7 °F 44.6 °F 93% 29.85 in 2.5 mi ENE 12.7 mph - 0.11 in Rain Rain
11:21 AM 46.4 °F 39.8 °F 44.6 °F 93% 29.85 in 3.0 mi ENE 16.1 mph 24.2 mph 0.13 in Rain Rain
11:40 AM 48.2 °F - 44.6 °F 87% 29.86 in 8.0 mi NE 10.4 mph - 0.17 in Rain Light Rain
11:48 AM 48.2 °F - 44.6 °F 87% 29.87 in 10.0 mi NE 8.1 mph - 0.17 in Rain Light Rain
11:55 AM 48.0 °F - 44.1 °F 86% 29.87 in 9.0 mi ENE 9.2 mph - 0.18 in Rain Light Rain
12:13 PM 48.2 °F - 44.6 °F 87% 29.87 in 2.0 mi ENE 6.9 mph - 0.02 in Rain Rain
12:45 PM 48.2 °F - 44.6 °F 87% 29.88 in 3.0 mi ENE 6.9 mph - 0.08 in Rain Rain
12:50 PM 48.2 °F - 44.6 °F 87% 29.89 in 2.5 mi ENE 9.2 mph - 0.09 in Rain Rain
12:55 PM 48.2 °F - 44.6 °F 87% 29.88 in 2.0 mi ENE 10.4 mph - N/A Rain Rain
12:59 PM 48.2 °F - 44.6 °F 87% 29.87 in 1.8 mi NE 9.2 mph - 0.00 in Rain Rain
1:10 PM 48.2 °F - 44.6 °F 87% 29.88 in 1.5 mi NE 5.8 mph - 0.04 in Rain Rain
1:17 PM 48.2 °F - 44.6 °F 87% 29.87 in 2.5 mi NNE 8.1 mph - 0.05 in Rain Light Rain
1:32 PM 48.2 °F - 44.6 °F 87% 29.87 in 6.0 mi NE 5.8 mph - 0.07 in Rain Light Rain
1:55 PM 48.9 °F - 45.0 °F 86% 29.89 in 10.0 mi North 8.1 mph 17.3 mph 0.07 in Rain Light Rain
2:55 PM 50.0 °F - 45.0 °F 83% 29.89 in 10.0 mi NE 9.2 mph - N/A   Overcast
3:55 PM 51.1 °F - 45.0 °F 80% 29.90 in 10.0 mi NE 8.1 mph - 0.00 in   Overcast
4:03 PM 50.0 °F - 44.6 °F 82% 29.90 in 10.0 mi NE 8.1 mph - N/A   Overcast
4:11 PM 50.0 °F - 44.6 °F 82% 29.90 in 10.0 mi North 8.1 mph - N/A   Overcast
4:55 PM 50.0 °F - 43.0 °F 77% 29.91 in 10.0 mi NNE 8.1 mph - N/A   Overcast
5:51 PM 50.0 °F - 42.8 °F 76% 29.89 in 10.0 mi NNE 5.8 mph - N/A   Overcast
5:55 PM 50.0 °F - 43.0 °F 77% 29.90 in 10.0 mi NNE 10.4 mph - N/A   Overcast
6:17 PM 50.0 °F - 42.8 °F 76% 29.89 in 10.0 mi North 9.2 mph - N/A   Overcast
6:55 PM 50.0 °F - 44.1 °F 80% 29.90 in 10.0 mi NE 8.1 mph - N/A   Overcast
7:55 PM 51.1 °F - 44.1 °F 77% 29.91 in 10.0 mi NNE 3.5 mph - N/A   Overcast
8:55 PM 50.0 °F - 44.1 °F 80% 29.93 in 10.0 mi NW 6.9 mph - N/A   Overcast
8:58 PM 48.2 °F - 44.6 °F 87% 29.92 in 10.0 mi NNW 8.1 mph - N/A   Overcast
9:21 PM 48.2 °F - 44.6 °F 87% 29.92 in 10.0 mi North 9.2 mph - N/A   Overcast
9:47 PM 48.2 °F - 44.6 °F 87% 29.92 in 10.0 mi North 6.9 mph - N/A   Overcast
9:53 PM 48.2 °F - 44.6 °F 87% 29.92 in 10.0 mi North 6.9 mph - N/A   Overcast
9:55 PM 48.0 °F - 44.1 °F 86% 29.94 in 10.0 mi North 5.8 mph - N/A   Overcast
10:25 PM 48.2 °F - 44.6 °F 87% 29.93 in 10.0 mi NNW 5.8 mph - N/A   Overcast
10:34 PM 48.2 °F - 44.6 °F 87% 29.93 in 10.0 mi North 4.6 mph - N/A   Overcast
10:55 PM 48.0 °F - 44.1 °F 86% 29.94 in 10.0 mi NNW 6.9 mph - N/A   Overcast
11:55 PM 48.0 °F - 43.0 °F 83% 29.94 in 10.0 mi North 5.8 mph - N/A   Overcast